Location: Alafon
(8.4500°N, 4.2333°E)
Time: 01:33:21
(UTC+00:00)

Vanguard 2 - Pass Details

Date: 05 August 2021
Orbit: 553 x 2937 km, 32.9° (Epoch: 27 September)

Event Time Altitude Azimuth Distance (km) Brightness Sun altitude
Rises 11:54:08 0° 280° (W) 4,649 11.6 81.5°
Reaches altitude 10° 11:57:11 10° 271° (W) 3,974 11.4 81.4°
Maximum altitude 12:07:06 35° 209° (SSW) 3,224 11.2 80.5°
Drops below altitude 10° 12:21:16 10° 150° (SSE) 5,610 11.9 78.5°
Sets 12:26:41 0° 142° (SE) 6,757 12.2 77.6°
